Terminal Aerodrome Forecast
Issued by NWS Omaha/Valley, NE

Home | Current Version | Previous Version | Graphics & Text | Print | Product List | Glossary On
Versions: 1 2 3 4 5 6 7 8 9 10 11 12 13 14 15 16 17 18 19 20 21 22 23 24 25 26 27 28 29 30 31 32 33 34 35 36 37 38 39 40 41 42 43 44 45 46 47 48
000
FTUS43 KOAX 251527 AAA
TAFOFK
TAF AMD
KOFK 251527Z 2515/2612 18007KT P6SM SCT010 BKN100
     FM251900 19010KT P6SM BKN035
      TEMPO 2523/2603 5SM -TSRA OVC020CB=

USA.gov is the U.S. government's official web portal to all federal, state and local government web resources and services.